Athens, OH

7:09 AM EDT on August 20, 2017 (GMT -0400)
Ohio University

Weather History for KUNI - November, 2012

Change the Weather History Date:

Monday, November 12, 2012

  Actual Average (KPKB) Record (KPKB)
Temperature  
Mean Temperature 47 °F -  
Max Temperature 62 °F 52 °F 77 °F (1949)
Min Temperature 32 °F 35 °F 16 °F (1913)
Degree Days  
Heating Degree Days 18    
Moisture  
Dew Point 43 °F    
Average Humidity 72    
Maximum Humidity 92    
Minimum Humidity 40    
Precipitation  
Precipitation 0.00 in - - ()
Sea Level Pressure  
Sea Level Pressure 30.17 in    
Wind  
Wind Speed 5 mph (SW)    
Max Wind Speed 16 mph    
Max Gust Speed 25 mph    
Visibility 9 miles    
Events Rain    
Averages and records for this station are not official NWS values.
T = Trace of Precipitation, MM = Missing Value Source: NWS Daily Summary

Daily Weather History Graph

Daily Weather History Graph

Search for Another Location

Airport or City:

Trip Planner

Search our weather history database for the weather conditions in past years. The results will help you decide how hot, cold, wet, or windy it might be!

Date:

Astronomy

Nov. 12, 2012 Rise Set
Actual Time 7:09 AM EST 5:16 PM EST
Civil Twilight 6:40 AM EST 5:44 PM EST
Nautical Twilight 6:08 AM EST 6:17 PM EST
Astronomical Twilight 5:37 AM EST 6:48 PM EST
Moon 5:33 AM EST (11/12) 4:20 PM EST (11/12)
Length of Visible Light 11h 03m
Length of Day
10h 06m
Waning Crescent, 2% of the Moon is Illuminated
Nov 12
Waning Crescent
Nov 13
New
Nov 20
First Quarter
Nov 28
Full
Dec 6
Last Quarter

Hourly Weather History & Observations

Time (EST) Temp. Windchill Dew Point Humidity Pressure Visibility Wind Dir Wind Speed Gust Speed Precip Events Conditions
12:15 AM 62.4 °F - 37.4 °F 40% 30.17 in 10.0 mi South 5.8 mph - N/A   Clear
12:35 AM 62.1 °F - 38.5 °F 42% 30.17 in 10.0 mi SSE 8.1 mph - N/A   Clear
12:55 AM 62.2 °F - 40.1 °F 44% 30.17 in 10.0 mi South 5.8 mph - N/A   Clear
1:15 AM 61.9 °F - 41.0 °F 46% 30.16 in 10.0 mi South 3.5 mph - N/A   Clear
1:35 AM 62.2 °F - 41.5 °F 47% 30.17 in 10.0 mi South 4.6 mph - N/A   Clear
1:55 AM 61.7 °F - 42.1 °F 49% 30.16 in 10.0 mi South 4.6 mph - N/A   Clear
2:15 AM 61.0 °F - 42.8 °F 51% 30.16 in 10.0 mi South 4.6 mph - N/A   Clear
2:35 AM 60.6 °F - 43.0 °F 52% 30.17 in 10.0 mi South 4.6 mph - N/A   Clear
2:55 AM 60.6 °F - 43.2 °F 53% 30.16 in 10.0 mi SSE 3.5 mph - N/A   Clear
3:15 AM 60.8 °F - 43.2 °F 52% 30.16 in 10.0 mi Calm Calm - N/A   Clear
3:35 AM 59.9 °F - 43.2 °F 54% 30.16 in 10.0 mi SE 3.5 mph - N/A   Clear
3:55 AM 59.2 °F - 43.2 °F 55% 30.15 in 10.0 mi SE 3.5 mph - N/A   Clear
4:15 AM 59.2 °F - 43.3 °F 56% 30.15 in 10.0 mi SSE 3.5 mph - N/A   Clear
4:35 AM 59.0 °F - 43.3 °F 56% 30.14 in 10.0 mi SE 4.6 mph - N/A   Clear
5:15 AM 59.5 °F - 44.1 °F 57% 30.14 in 10.0 mi SSE 3.5 mph - N/A   Clear
5:35 AM 59.4 °F - 44.4 °F 58% 30.13 in 10.0 mi SE 3.5 mph - N/A   Clear
5:55 AM 59.5 °F - 44.6 °F 58% 30.12 in 10.0 mi SSE 4.6 mph - N/A   Clear
6:15 AM 59.4 °F - 44.8 °F 58% 30.11 in 10.0 mi SE 4.6 mph - N/A   Clear
6:35 AM 59.9 °F - 45.3 °F 59% 30.11 in 10.0 mi SE 4.6 mph - N/A   Clear
6:55 AM 59.9 °F - 45.5 °F 59% 30.10 in 10.0 mi SSE 5.8 mph - N/A   Clear
7:15 AM 59.9 °F - 45.7 °F 59% 30.10 in 10.0 mi SSE 5.8 mph - N/A   Clear
7:55 AM 59.5 °F - 46.2 °F 61% 30.11 in 10.0 mi South 5.8 mph - N/A   Clear
8:15 AM 60.3 °F - 46.6 °F 61% 30.12 in 10.0 mi South 3.5 mph - N/A   Clear
8:35 AM 60.8 °F - 46.6 °F 59% 30.12 in 10.0 mi South 4.6 mph - N/A   Scattered Clouds
8:55 AM 61.7 °F - 46.8 °F 58% 30.12 in 10.0 mi South 4.6 mph - N/A   Mostly Cloudy
9:15 AM 62.4 °F - 46.9 °F 57% 30.12 in 10.0 mi South 8.1 mph - N/A   Overcast
9:35 AM 62.6 °F - 47.1 °F 57% 30.13 in 10.0 mi SSW 4.6 mph - N/A   Overcast
9:55 AM 62.2 °F - 47.5 °F 58% 30.12 in 10.0 mi Calm Calm - N/A   Overcast
10:15 AM 61.9 °F - 48.7 °F 62% 30.11 in 10.0 mi SW 4.6 mph - N/A Rain Light Rain
10:35 AM 59.0 °F - 52.0 °F 78% 30.12 in 7.0 mi West 6.9 mph - N/A Rain Light Rain
10:55 AM 58.1 °F - 52.5 °F 82% 30.11 in 5.0 mi SW 5.8 mph - N/A Rain Light Rain
11:15 AM 57.9 °F - 52.9 °F 83% 30.11 in 10.0 mi SW 5.8 mph - N/A Rain Light Rain
11:35 AM 57.4 °F - 53.8 °F 88% 30.08 in 10.0 mi Calm Calm - N/A Rain Light Rain
11:55 AM 58.1 °F - 54.0 °F 86% 30.07 in 10.0 mi Calm Calm - N/A   Light Drizzle
12:15 PM 58.6 °F - 54.3 °F 86% 30.06 in 10.0 mi SW 3.5 mph - N/A Rain Light Rain
12:35 PM 58.5 °F - 54.5 °F 87% 30.03 in 10.0 mi West 4.6 mph - N/A   Overcast
12:55 PM 58.1 °F - 55.4 °F 91% 30.02 in 7.0 mi Calm Calm - N/A Rain Light Rain
1:15 PM 59.0 °F - 55.6 °F 88% 30.02 in 7.0 mi Calm Calm - N/A Rain Light Rain
1:35 PM 59.9 °F - 54.7 °F 83% 30.02 in 10.0 mi SW 4.6 mph - N/A Rain Light Rain
1:55 PM 60.1 °F - 55.0 °F 83% 30.03 in 10.0 mi West 16.1 mph 23.0 mph N/A   Overcast
2:15 PM 54.5 °F - 51.4 °F 89% 30.06 in 4.0 mi West 13.8 mph 25.3 mph N/A   Light Drizzle
2:35 PM 52.5 °F - 49.6 °F 90% 30.07 in 5.0 mi West 8.1 mph - N/A Rain Light Rain
2:55 PM 52.0 °F - 49.8 °F 92% 30.08 in 7.0 mi West 6.9 mph 16.1 mph N/A Rain Rain
3:15 PM 50.9 °F - 48.4 °F 91% 30.10 in 5.0 mi WNW 10.4 mph - N/A   Heavy Drizzle
3:35 PM 50.0 °F - 47.7 °F 92% 30.11 in 4.0 mi West 11.5 mph 16.1 mph N/A Rain Rain
3:55 PM 47.1 °F - 43.9 °F 88% 30.13 in 4.0 mi NW 16.1 mph 24.2 mph N/A   Drizzle
4:15 PM 45.3 °F 39.3 °F 42.8 °F 91% 30.16 in 4.0 mi WNW 12.7 mph 20.7 mph N/A Rain Rain
4:35 PM 44.8 °F 39.9 °F 42.3 °F 91% 30.18 in 10.0 mi West 9.2 mph 16.1 mph N/A Rain Light Rain
4:55 PM 44.6 °F 40.2 °F 41.9 °F 90% 30.19 in 10.0 mi WNW 8.1 mph 18.4 mph N/A   Drizzle
5:15 PM 44.6 °F 39.7 °F 41.9 °F 90% 30.21 in 10.0 mi West 9.2 mph - N/A   Drizzle
5:35 PM 44.1 °F 37.4 °F 40.3 °F 87% 30.22 in 10.0 mi West 13.8 mph 17.3 mph N/A Rain Light Rain
5:55 PM 43.5 °F 36.7 °F 38.5 °F 82% 30.23 in 10.0 mi WSW 13.8 mph 19.6 mph N/A   Light Drizzle
6:15 PM 43.2 °F 38.4 °F 37.2 °F 80% 30.25 in 10.0 mi West 8.1 mph - N/A   Overcast
6:35 PM 42.8 °F 39.3 °F 37.0 °F 80% 30.26 in 10.0 mi West 5.8 mph - N/A Rain Light Rain
6:55 PM 42.6 °F 37.8 °F 37.8 °F 83% 30.29 in 10.0 mi WSW 8.1 mph - N/A Rain Light Rain
7:15 PM 42.1 °F 37.7 °F 37.2 °F 83% 30.27 in 10.0 mi WSW 6.9 mph - N/A   Overcast
7:35 PM 41.9 °F 36.3 °F 37.2 °F 83% 30.29 in 10.0 mi West 9.2 mph - N/A   Overcast
8:15 PM 41.0 °F 34.7 °F 37.2 °F 86% 30.30 in 10.0 mi WNW 10.4 mph - N/A   Overcast
8:35 PM 40.1 °F 34.1 °F 36.5 °F 87% 30.31 in 10.0 mi WNW 9.2 mph - N/A   Mostly Cloudy
9:15 PM 36.9 °F 29.6 °F 29.8 °F 76% 30.34 in 10.0 mi West 10.4 mph 16.1 mph N/A   Scattered Clouds
9:35 PM 36.0 °F 32.1 °F 29.8 °F 78% 30.36 in 10.0 mi West 4.6 mph - N/A   Scattered Clouds
9:55 PM 35.1 °F 32.2 °F 29.8 °F 81% 30.37 in 10.0 mi West 3.5 mph - N/A   Clear
10:15 PM 34.5 °F - 29.7 °F 82% 30.38 in 10.0 mi Calm Calm - N/A   Clear
10:35 PM 33.4 °F - 29.7 °F 86% 30.39 in 10.0 mi Calm Calm - N/A   Clear
10:55 PM 32.9 °F 29.8 °F 29.5 °F 87% 30.39 in 10.0 mi SW 3.5 mph - N/A   Clear
11:15 PM 32.2 °F - 29.1 °F 88% 30.39 in 10.0 mi Calm Calm - N/A   Clear
11:35 PM 32.2 °F - 28.9 °F 88% 30.40 in 10.0 mi Calm Calm - N/A   Clear
11:55 PM 32.0 °F - 29.1 °F 89% 30.41 in 10.0 mi Calm Calm - N/A   Clear